CW9206 Weather Reports


Display with metric or nautical units.
time (UTC)temp
F
wind
direction
speed
MPH
gust
MPH
rain 1hr
in
rain 24hr
in
rain mn
in
humidity
%
barometer
mb
20260906055129 62 274 0.0 0.0 0.00 0.00 0.00 83 1013.2
20260906054629 62 297 0.0 2.0 0.00 0.00 0.00 82 1013.2
20260906054129 62 297 0.0 2.0 0.00 0.00 0.00 82 1013.2
20260906053629 62 5 0.0 2.0 0.00 0.00 0.00 82 1013.2
20260906053129 62 294 1.0 3.0 0.00 0.00 0.00 82 1013.2
20260906052628 62 341 1.0 3.0 0.00 0.00 0.00 81 1013.2
20260906052128 63 285 0.0 2.0 0.00 0.00 0.00 81 1013.3
20260906051628 63 345 0.0 2.0 0.00 0.00 0.00 80 1013.3
20260906051128 63 309 0.0 3.0 0.00 0.00 0.00 80 1013.4
20260906050628 63 322 0.0 3.0 0.00 0.00 0.00 80 1013.4
20260906050128 63 317 1.0 2.0 0.00 0.00 0.00 79 1013.4
20260906045628 63 344 2.0 2.0 0.00 0.00 0.00 78 1013.3
20260906045128 64 209 0.0 0.0 0.00 0.00 0.00 77 1013.2
20260906044628 64 209 0.0 2.0 0.00 0.00 0.00 77 1013.1
20260906044128 64 209 0.0 2.0 0.00 0.00 0.00 77 1013.0
20260906043628 64 159 0.0 2.0 0.00 0.00 0.00 76 1012.9
20260906043128 64 159 0.0 2.0 0.00 0.00 0.00 75 1013.0
20260906042628 65 223 0.0 2.0 0.00 0.00 0.00 74 1013.0
20260906042128 65 252 0.0 2.0 0.00 0.00 0.00 74 1012.9
20260906041628 65 321 0.0 1.0 0.00 0.00 0.00 73 1012.9
20260906041128 65 326 0.0 2.0 0.00 0.00 0.00 73 1012.9
20260906040628 66 322 0.0 2.0 0.00 0.00 0.00 72 1012.9
20260906035628 66 30 0.0 2.0 0.00 0.00 0.00 72 1012.6
20260906035128 66 79 0.0 2.0 0.00 0.00 0.00 71 1012.5
20260906034628 66 339 0.0 2.0 0.00 0.00 0.00 71 1012.6
20260906034127 67 321 0.0 2.0 0.00 0.00 0.00 70 1012.5
20260906033627 67 298 0.0 2.0 0.00 0.00 0.00 69 1012.4
20260906033128 67 269 0.0 2.0 0.00 0.00 0.00 69 1012.3
20260906032627 67 262 0.0 0.0 0.00 0.00 0.00 68 1012.2
20260906032128 68 262 0.0 2.0 0.00 0.00 0.00 68 1012.2
20260906031627 68 292 0.0 3.0 0.00 0.00 0.00 67 1012.2
20260906031128 68 323 1.0 3.0 0.00 0.00 0.00 67 1012.1
20260906030627 69 233 0.0 2.0 0.00 0.00 0.00 66 1012.0
20260906030128 69 261 0.0 2.0 0.00 0.00 0.00 65 1012.0
20260906025628 69 288 1.0 3.0 0.00 0.00 0.00 64 1011.8
20260906025127 70 248 1.0 3.0 0.00 0.00 0.00 63 1011.9
20260906024628 70 250 0.0 3.0 0.00 0.00 0.00 63 1011.8
20260906024127 71 224 0.0 3.0 0.00 0.00 0.00 62 1011.8
20260906023627 71 21 0.0 3.0 0.00 0.00 0.00 61 1011.8
20260906023128 72 177 0.0 3.0 0.00 0.00 0.00 59 1011.8
20260906022627 72 102 2.0 3.0 0.00 0.00 0.00 58 1011.7
20260906021627 74 284 0.0 4.0 0.00 0.00 0.00 56 1011.7
20260906021127 74 92 2.0 5.0 0.00 0.00 0.00 55 1011.5
20260906020627 75 205 0.0 6.0 0.00 0.00 0.00 53 1011.5
20260906020127 76 265 1.0 6.0 0.00 0.00 0.00 53 1011.4
20260906015127 77 343 1.0 5.0 0.00 0.00 0.00 50 1011.5
20260906014626 78 15 0.0 5.0 0.00 0.00 0.00 49 1011.4
20260906014127 78 161 0.0 4.0 0.00 0.00 0.00 48 1011.4
20260906013627 79 273 0.0 4.0 0.00 0.00 0.00 47 1011.5
20260906012627 80 248 0.0 2.0 0.00 0.00 0.00 45 1011.5
20260906012156 81 246 0.0 3.0 0.00 0.00 0.00 44 1011.6
20260906011626 81 343 1.0 3.0 0.00 0.00 0.00 43 1011.5
20260906011126 82 329 1.0 4.0 0.00 0.00 0.00 42 1011.6
20260906010126 84 267 1.0 3.0 0.00 0.00 0.00 41 1011.6
20260906005626 84 226 2.0 5.0 0.00 0.00 0.00 40 1011.6
20260906005126 85 48 1.0 5.0 0.00 0.00 0.00 39 1011.6
20260906004626 85 172 0.0 5.0 0.00 0.00 0.00 40 1011.6
20260906004126 85 257 0.0 5.0 0.00 0.00 0.00 38 1011.5
20260906003627 85 309 2.0 6.0 0.00 0.00 0.00 38 1011.5
20260906002626 86 195 0.0 3.0 0.00 0.00 0.00 36 1011.5
20260906002125 86 211 0.0 6.0 0.00 0.00 0.00 36 1011.4
20260906001626 86 350 0.0 6.0 0.00 0.00 0.00 35 1011.4
20260906001125 86 14 0.0 4.0 0.00 0.00 0.00 35 1011.4
20260906000125 86 309 0.0 6.0 0.00 0.00 0.00 35 1011.4
20260905235656 86 165 1.0 6.0 0.00 0.00 0.00 35 1011.3
20260905235125 87 341 3.0 6.0 0.00 0.00 0.00 35 1011.4
20260905234626 87 302 1.0 9.0 0.00 0.00 0.00 34 1011.4
20260905234155 88 277 0.0 9.0 0.00 0.00 0.00 34 1011.4
20260905233625 89 345 1.0 3.0 0.00 0.00 0.00 33 1011.3
20260905232626 89 171 2.0 4.0 0.00 0.00 0.00 32 1011.4
20260905232126 89 323 0.0 4.0 0.00 0.00 0.00 33 1011.4
20260905231625 89 259 1.0 6.0 0.00 0.00 0.00 32 1011.4
20260905231125 89 260 1.0 6.0 0.00 0.00 0.00 33 1011.4
20260905230126 89 209 4.0 5.0 0.00 0.00 0.00 32 1011.5
20260905225626 89 256 1.0 5.0 0.00 0.00 0.00 31 1011.5
20260905225125 89 169 2.0 5.0 0.00 0.00 0.00 32 1011.6
20260905224655 89 190 1.0 5.0 0.00 0.00 0.00 33 1011.7
20260905224125 90 230 4.0 4.0 0.00 0.00 0.00 32 1011.7
20260905223625 91 226 1.0 5.0 0.00 0.00 0.00 32 1011.8
20260905223125 91 273 2.0 5.0 0.00 0.00 0.00 31 1011.7
20260905222625 91 167 1.0 3.0 0.00 0.00 0.00 31 1011.7
20260905222126 91 180 1.0 3.0 0.00 0.00 0.00 31 1011.6
20260905221625 91 246 0.0 3.0 0.00 0.00 0.00 31 1011.5
20260905220656 91 158 0.0 4.0 0.00 0.00 0.00 31 1011.4
20260905215626 90 207 1.0 3.0 0.00 0.00 0.00 30 1011.6
20260905215126 89 211 1.0 6.0 0.00 0.00 0.00 31 1011.7
20260905214626 89 217 1.0 7.0 0.00 0.00 0.00 30 1011.7
20260905214125 88 191 2.0 9.0 0.00 0.00 0.00 31 1011.7
20260905213625 88 192 1.0 9.0 0.00 0.00 0.00 29 1011.8
20260905213125 90 149 5.0 9.0 0.00 0.00 0.00 28 1011.8
20260905212625 90 225 1.0 6.0 0.00 0.00 0.00 29 1011.8
20260905212126 89 163 1.0 6.0 0.00 0.00 0.00 29 1011.9
20260905211625 89 284 0.0 6.0 0.00 0.00 0.00 30 1011.9
20260905211125 89 286 2.0 5.0 0.00 0.00 0.00 29 1011.9
20260905210625 90 147 1.0 6.0 0.00 0.00 0.00 31 1012.0
20260905210155 89 147 2.0 6.0 0.00 0.00 0.00 30 1011.9
20260905205625 89 327 0.0 7.0 0.00 0.00 0.00 29 1012.1
20260905205125 89 233 2.0 7.0 0.00 0.00 0.00 30 1012.1
20260905204626 89 170 3.0 6.0 0.00 0.00 0.00 30 1012.1
20260905204126 89 207 1.0 4.0 0.00 0.00 0.00 30 1012.1
20260905203625 89 209 2.0 4.0 0.00 0.00 0.00 30 1012.2
20260905202625 88 240 1.0 4.0 0.00 0.00 0.00 31 1012.4
20260905201125 87 171 1.0 6.0 0.00 0.04 0.00 31 1012.4
20260905200626 87 263 1.0 6.0 0.00 0.04 0.00 32 1012.5
20260905200125 86 141 5.0 7.0 0.00 0.04 0.00 33 1012.5
20260905195655 86 189 2.0 7.0 0.00 0.04 0.00 34 1012.6
20260905195125 86 211 2.0 6.0 0.00 0.04 0.00 34 1012.6
20260905194125 85 255 1.0 5.0 0.00 0.04 0.00 35 1012.7
20260905193625 85 250 1.0 5.0 0.00 0.04 0.00 36 1012.8
20260905193125 85 277 1.0 6.0 0.00 0.04 0.00 35 1012.8
20260905192625 85 17 2.0 6.0 0.00 0.04 0.00 36 1012.9
20260905192125 84 237 2.0 7.0 0.00 0.04 0.00 37 1013.0
20260905191625 84 143 3.0 9.0 0.00 0.04 0.00 37 1013.1
20260905191125 83 254 0.0 9.0 0.00 0.04 0.00 40 1013.0
20260905190625 83 142 4.0 8.0 0.00 0.04 0.00 41 1013.1
20260905190125 84 142 2.0 6.0 0.00 0.04 0.00 41 1013.1
20260905185655 83 130 1.0 6.0 0.00 0.04 0.00 42 1013.1
20260905184625 83 335 0.0 7.0 0.00 0.04 0.00 42 1013.1
20260905184125 83 133 3.0 6.0 0.00 0.04 0.00 43 1013.2
20260905183626 83 218 0.0 5.0 0.00 0.04 0.00 44 1013.3
20260905182625 82 258 1.0 7.0 0.00 0.04 0.00 46 1013.3
20260905182155 81 115 2.0 7.0 0.00 0.04 0.00 47 1013.3
20260905181625 81 128 1.0 3.0 0.00 0.04 0.00 49 1013.3
20260905180625 81 360 1.0 2.0 0.00 0.04 0.00 49 1013.3
20260905180125 80 285 2.0 2.0 0.00 0.04 0.00 51 1013.3
20260905175625 79 185 0.0 2.0 0.00 0.04 0.00 53 1013.3
20260905175125 78 284 0.0 2.0 0.00 0.04 0.00 54 1013.3
20260905174125 77 134 0.0 3.0 0.00 0.04 0.00 56 1013.4
20260905173625 76 234 1.0 3.0 0.00 0.04 0.00 58 1013.3
20260905173125 75 254 0.0 2.0 0.00 0.04 0.00 59 1013.3
20260905172625 74 118 1.0 3.0 0.00 0.04 0.00 59 1013.3
20260905172124 73 186 0.0 3.0 0.00 0.04 0.00 61 1013.3
20260905171654 72 65 0.0 2.0 0.00 0.04 0.00 61 1013.2
20260905171125 72 114 1.0 2.0 0.00 0.04 0.00 62 1013.2
20260905170625 71 146 1.0 2.0 0.00 0.04 0.00 62 1013.2
20260905170125 70 230 0.0 1.0 0.00 0.04 0.00 64 1013.4
20260905165624 69 186 1.0 2.0 0.00 0.04 0.00 65 1013.4
20260905165124 68 300 0.0 2.0 0.00 0.04 0.00 67 1013.5
20260905164154 67 236 1.0 2.0 0.00 0.04 0.00 70 1013.4
20260905163625 66 94 0.0 2.0 0.00 0.04 0.00 72 1013.5
20260905163124 65 10 0.0 2.0 0.00 0.04 0.00 74 1013.5
20260905162624 64 188 0.0 2.0 0.00 0.04 0.00 75 1013.3
20260905162124 64 162 0.0 2.0 0.00 0.04 0.00 77 1013.3
20260905161624 63 304 1.0 2.0 0.00 0.04 0.00 77 1013.3
20260905161125 62 113 0.0 2.0 0.00 0.04 0.00 79 1013.3
20260905160625 62 142 0.0 2.0 0.00 0.04 0.00 80 1013.3
20260905160124 61 137 0.0 2.0 0.00 0.04 0.00 82 1013.3
20260905155625 61 121 1.0 2.0 0.00 0.04 0.00 82 1013.3
20260905155125 60 127 0.0 3.0 0.00 0.04 0.00 83 1013.3
20260905154624 59 103 0.0 3.0 0.00 0.04 0.00 84 1013.4
20260905154125 59 121 1.0 2.0 0.00 0.04 0.00 85 1013.3
20260905153624 59 101 1.0 3.0 0.00 0.04 0.00 86 1013.4
20260905153125 58 111 1.0 3.0 0.00 0.04 0.00 88 1013.3
20260905152625 57 360 0.0 2.0 0.00 0.04 0.00 89 1013.3
20260905151624 57 114 0.0 2.0 0.00 0.04 0.00 89 1013.3
20260905151124 57 107 1.0 2.0 0.00 0.04 0.00 90 1013.2
20260905150125 56 72 0.0 0.0 0.00 0.04 0.00 91 1013.2
20260905145125 56 75 0.0 2.0 0.00 0.04 0.00 91 1013.3
20260905144624 56 43 0.0 0.0 0.00 0.04 0.00 91 1013.3
20260905144124 56 28 0.0 0.0 0.00 0.04 0.00 91 1013.2
20260905143625 56 9 0.0 0.0 0.00 0.04 0.00 91 1013.1
20260905143125 55 9 0.0 0.0 0.00 0.04 0.00 91 1013.0
20260905142124 55 11 0.0 0.0 0.00 0.04 0.00 92 1013.0
20260905141624 55 11 0.0 2.0 0.00 0.04 0.00 92 1012.9
20260905140624 55 360 0.0 1.0 0.00 0.04 0.00 92 1012.7
20260905140124 55 360 0.0 2.0 0.00 0.04 0.00 91 1012.6
20260905134624 55 9 0.0 1.0 0.00 0.04 0.00 92 1012.6
20260905134124 55 355 0.0 2.0 0.00 0.04 0.00 92 1012.6
20260905133624 55 9 0.0 2.0 0.00 0.04 0.00 92 1012.5
20260905133124 55 339 0.0 0.0 0.00 0.04 0.00 92 1012.5
20260905132624 55 338 0.0 2.0 0.00 0.04 0.00 92 1012.5
20260905132125 55 338 0.0 2.0 0.00 0.04 0.00 92 1012.4
20260905131624 55 340 0.0 2.0 0.00 0.04 0.00 92 1012.3
20260905130624 55 344 0.0 2.0 0.00 0.04 0.00 92 1012.3
20260905130154 55 344 0.0 2.0 0.00 0.04 0.00 92 1012.3
20260905125624 55 345 0.0 2.0 0.00 0.04 0.00 92 1012.3
20260905125124 55 345 0.0 2.0 0.00 0.04 0.00 92 1012.3
20260905124624 55 331 0.0 2.0 0.00 0.04 0.00 91 1012.1
20260905124124 55 339 0.0 1.0 0.00 0.04 0.00 91 1012.1
20260905123624 55 328 0.0 2.0 0.00 0.04 0.00 91 1012.1
20260905123124 55 327 0.0 2.0 0.00 0.04 0.00 91 1012.2
20260905122624 55 330 1.0 1.0 0.00 0.04 0.00 92 1012.2
20260905122124 55 330 0.0 0.0 0.00 0.04 0.00 92 1012.1
20260905121624 55 330 0.0 0.0 0.00 0.04 0.00 92 1012.1
20260905121124 55 330 0.0 1.0 0.00 0.04 0.00 92 1012.1
20260905120624 55 332 0.0 2.0 0.00 0.04 0.00 91 1012.2
20260905120124 55 331 1.0 2.0 0.00 0.04 0.00 91 1012.1
20260905115124 55 326 2.0 2.0 0.00 0.04 0.00 92 1012.2
20260905114624 55 350 0.0 0.0 0.00 0.04 0.00 92 1012.2
20260905114124 55 350 0.0 0.0 0.00 0.04 0.00 91 1012.2
20260905113624 55 355 0.0 0.0 0.00 0.04 0.00 91 1012.3
20260905113124 55 355 0.0 0.0 0.00 0.04 0.00 92 1012.3
20260905112624 55 355 0.0 0.0 0.00 0.04 0.00 92 1012.3
20260905112124 55 355 0.0 0.0 0.00 0.04 0.00 92 1012.2
20260905111624 55 355 0.0 0.0 0.00 0.04 0.00 92 1012.4
20260905111124 55 355 0.0 0.0 0.00 0.04 0.00 92 1012.4
20260905110654 56 345 0.0 0.0 0.00 0.04 0.00 92 1012.4
20260905110154 56 338 0.0 0.0 0.00 0.04 0.00 92 1012.3
20260905105624 56 331 0.0 0.0 0.00 0.04 0.00 92 1012.5
20260905105124 56 331 0.0 0.0 0.00 0.04 0.00 92 1012.5
20260905104624 56 331 0.0 0.0 0.00 0.04 0.00 92 1012.5
20260905103624 56 330 0.0 0.0 0.00 0.04 0.00 92 1012.6
20260905103124 56 330 0.0 0.0 0.00 0.04 0.00 92 1012.6
20260905102124 55 330 0.0 0.0 0.00 0.04 0.00 92 1012.6
20260905101624 55 330 0.0 0.0 0.00 0.04 0.00 92 1012.7
20260905101124 55 330 0.0 0.0 0.00 0.04 0.00 92 1012.7
20260905100624 55 330 0.0 0.0 0.00 0.04 0.00 92 1012.6
20260905100124 55 330 0.0 0.0 0.00 0.04 0.00 91 1012.7
20260905095624 55 330 0.0 0.0 0.00 0.04 0.00 89 1012.7
20260905094624 54 330 0.0 0.0 0.00 0.04 0.00 86 1012.7
20260905094124 54 330 0.0 0.0 0.00 0.04 0.00 88 1012.8
20260905093624 54 330 0.0 0.0 0.00 0.04 0.00 88 1012.9
20260905092623 54 330 0.0 0.0 0.00 0.04 0.00 87 1012.9
20260905092124 54 330 0.0 0.0 0.00 0.04 0.00 87 1012.9
20260905091153 54 330 0.0 0.0 0.00 0.04 0.00 86 1013.0
20260905090624 54 330 0.0 0.0 0.00 0.04 0.00 87 1013.0
20260905090123 54 330 0.0 2.0 0.00 0.04 0.00 87 1013.0
20260905085624 55 330 0.0 2.0 0.00 0.04 0.00 87 1013.1
20260905084624 55 327 0.0 0.0 0.00 0.04 0.00 87 1013.2
20260905084154 55 327 0.0 1.0 0.00 0.04 0.00 87 1013.2
20260905083624 55 326 0.0 2.0 0.00 0.04 0.00 87 1013.2
20260905083123 55 326 1.0 2.0 0.00 0.04 0.00 86 1013.2
20260905082624 55 302 0.0 0.0 0.00 0.04 0.00 86 1013.2
20260905082123 55 302 0.0 0.0 0.00 0.04 0.00 86 1013.2
20260905081623 55 302 0.0 0.0 0.00 0.04 0.00 86 1013.2
20260905081124 55 302 0.0 0.0 0.00 0.04 0.00 86 1013.3
20260905080623 55 302 0.0 0.0 0.00 0.04 0.00 85 1013.4
20260905080154 56 302 0.0 0.0 0.00 0.04 0.00 85 1013.4
20260905075624 56 302 0.0 0.0 0.00 0.04 0.00 85 1013.3
20260905075154 56 302 0.0 0.0 0.00 0.04 0.00 84 1013.3
20260905074624 56 302 0.0 0.0 0.00 0.04 0.00 85 1013.3
20260905074124 56 302 0.0 0.0 0.00 0.04 0.00 84 1013.3
20260905073624 56 302 0.0 0.0 0.00 0.04 0.00 85 1013.2
20260905072624 57 302 0.0 0.0 0.00 0.04 0.00 85 1013.4
20260905072124 57 302 0.0 0.0 0.00 0.04 0.00 84 1013.4
20260905071623 57 302 0.0 0.0 0.00 0.04 0.00 84 1013.4
20260905071123 57 302 0.0 0.0 0.00 0.04 0.00 86 1013.3
20260905070623 57 302 0.0 0.0 0.00 0.04 0.00 85 1013.4
20260905070153 57 300 0.0 0.0 0.00 0.04 0.00 85 1013.3
20260905065654 57 300 0.0 0.0 0.00 0.04 0.04 85 1013.2
20260905065154 58 298 0.0 0.0 0.00 0.04 0.04 83 1013.1
20260905064653 58 298 0.0 0.0 0.00 0.04 0.04 82 1013.0
20260905064153 58 298 0.0 0.0 0.00 0.04 0.04 83 1012.9
20260905063653 58 298 0.0 1.0 0.00 0.04 0.04 84 1012.9
20260905063153 58 298 0.0 2.0 0.00 0.04 0.04 84 1013.0
20260905062653 59 290 1.0 2.0 0.00 0.04 0.04 84 1013.0
20260905062153 59 246 0.0 0.0 0.00 0.04 0.04 83 1013.0
20260905061653 59 246 0.0 0.0 0.00 0.04 0.04 84 1013.1
20260905060653 59 244 0.0 0.0 0.00 0.04 0.04 84 1013.0